This is the latest recevied weather packets stored in our database for station/object EA5FOG-11. If no packets are shown the sender has not sent any weather packets the latest 10 day(s).
| Time | Temp. | Humidity | Pressure | Rain* | Wind** | Luminosity | Snow |
|---|---|---|---|---|---|---|---|
| 1788430353 | 35° C | 43% | 965.3 hPa | - | - | - | - |
| 1788429452 | 35° C | 43% | 965.3 hPa | - | - | - | - |
| 1788428551 | 34.44° C | 43% | 965.3 hPa | - | - | - | - |
| 1788427650 | 35° C | 43% | 965.2 hPa | - | - | - | - |
| 1788426750 | 34.44° C | 43% | 965.3 hPa | - | - | - | - |
| 1788425849 | 34.44° C | 44% | 965.2 hPa | - | - | - | - |
| 1788424948 | 33.89° C | 44% | 965.3 hPa | - | - | - | - |
| 1788424047 | 33.89° C | 44% | 965.3 hPa | - | - | - | - |
| 1788423147 | 33.33° C | 45% | 965.2 hPa | - | - | - | - |
| 1788422246 | 29.44° C | 49% | 965.3 hPa | - | - | - | - |
| 1788421345 | 28.89° C | 49% | 965.4 hPa | - | - | - | - |
| 1788420443 | 28.89° C | 49% | 965.3 hPa | - | - | - | - |
| 1788419562 | 27.22° C | 51% | 965.2 hPa | - | - | - | - |
| 1788418661 | 26.11° C | 52% | 965.1 hPa | - | - | - | - |
| 1788417760 | 25.56° C | 53% | 965 hPa | - | - | - | - |
| 1788416859 | 25° C | 52% | 964.8 hPa | - | - | - | - |
| 1788415958 | 23.33° C | 55% | 964.8 hPa | - | - | - | - |
| 1788415058 | 22.22° C | 56% | 964.4 hPa | - | - | - | - |
| 1788414157 | 22.78° C | 56% | 964.4 hPa | - | - | - | - |
| 1788413256 | 22.78° C | 56% | 964.3 hPa | - | - | - | - |
| 1788412355 | 22.78° C | 56% | 964.1 hPa | - | - | - | - |
| 1788411455 | 22.22° C | 57% | 964.1 hPa | - | - | - | - |
| 1788410554 | 22.78° C | 56% | 963.9 hPa | - | - | - | - |
| 1788409653 | 22.78° C | 56% | 964 hPa | - | - | - | - |
| 1788408752 | 23.33° C | 56% | 963.9 hPa | - | - | - | - |
* Rain since midnight (hover to see other rain measurements)
** Current wind speed in m/s (hover to see current wind gust speed)